When you browse on this site, cookies collect data to enhance your experience and personalize the content and advertising you see.
Visit our Privacy Policy to learn more. By continuing to use the site, you agree to this use of cookies and data.
  • En España
  • Lista de países
  • Para 7 días
  • Temperatura del agua
  • El tiempo en el mapa
  • Informadores
  • user-avatar
    Iniciar sesión

    Tiempo cada hora Wiesbaden

    Hoy, 1 Junio, Lunes

    Tiempo Temperatura Precipitaciones Viento Presión Humedad
    00:00 +14°C° 0 mm 2 mps 752 mmHg 74%
    01:00 +13°C° 0 mm 1 mps 752 mmHg 76%
    02:00 +13°C° 0 mm 1 mps 752 mmHg 78%
    03:00 +13°C° 0 mm 1 mps 752 mmHg 81%
    04:00 +12°C° 0 mm 1 mps 752 mmHg 83%
    05:00 +13°C° 0 mm 1 mps 752 mmHg 81%
    06:00 +15°C° 0 mm 2 mps 752 mmHg 78%
    07:00 +16°C° 0 mm 2 mps 752 mmHg 75%
    08:00 +18°C° 0 mm 2 mps 752 mmHg 68%
    09:00 +20°C° 0 mm 2 mps 752 mmHg 61%
    10:00 +21°C° 0 mm 3 mps 752 mmHg 54%
    11:00 +22°C° 0 mm 3 mps 752 mmHg 50%
    12:00 +24°C° 0 mm 3 mps 752 mmHg 47%
    13:00 +25°C° 0 mm 3 mps 751 mmHg 43%
    14:00 +26°C° 0 mm 3 mps 751 mmHg 43%
    15:00 +26°C° 0 mm 3 mps 751 mmHg 42%
    16:00 +26°C° 0 mm 3 mps 751 mmHg 42%
    17:00 +25°C° 0 mm 3 mps 751 mmHg 47%
    18:00 +24°C° 0 mm 3 mps 751 mmHg 52%
    19:00 +22°C° 0 mm 3 mps 751 mmHg 57%
    20:00 +21°C° 0 mm 3 mps 751 mmHg 62%
    21:00 +19°C° 0 mm 3 mps 751 mmHg 66%
    22:00 +17°C° 0 mm 2 mps 751 mmHg 70%
    23:00 +16°C° 0 mm 2 mps 751 mmHg 74%

    Mañana, 2 Junio, Martes

    Tiempo Temperatura Precipitaciones Viento Presión Humedad
    00:00 +16°C° 0 mm 2 mps 751 mmHg 77%
    01:00 +15°C° 0 mm 2 mps 751 mmHg 81%
    02:00 +14°C° 0 mm 2 mps 751 mmHg 82%
    03:00 +14°C° 0 mm 1 mps 751 mmHg 84%
    04:00 +13°C° 0 mm 1 mps 751 mmHg 85%
    05:00 +14°C° 0 mm 1 mps 751 mmHg 81%
    06:00 +16°C° 0 mm 1 mps 751 mmHg 77%
    07:00 +18°C° 0 mm 1 mps 751 mmHg 73%
    08:00 +18°C° 0 mm 2 mps 751 mmHg 66%
    09:00 +20°C° 0 mm 2 mps 751 mmHg 59%
    10:00 +23°C° 0 mm 2 mps 751 mmHg 52%
    11:00 +24°C° 0 mm 2 mps 750 mmHg 48%
    12:00 +25°C° 0 mm 2 mps 750 mmHg 44%
    13:00 +26°C° 0 mm 2 mps 749 mmHg 40%
    14:00 +26°C° 0 mm 2 mps 749 mmHg 40%
    15:00 +26°C° 0 mm 2 mps 748 mmHg 40%
    16:00 +26°C° 0 mm 2 mps 748 mmHg 39%
    17:00 +26°C° 0 mm 1 mps 747 mmHg 45%
    18:00 +25°C° 0 mm 1 mps 747 mmHg 51%
    19:00 +24°C° 0 mm 1 mps 746 mmHg 56%
    20:00 +22°C° 0 mm 1 mps 746 mmHg 60%
    21:00 +21°C° 0 mm 1 mps 746 mmHg 64%
    22:00 +19°C° 0 mm 1 mps 746 mmHg 67%
    23:00 +19°C° 0 mm 1 mps 746 mmHg 68%

    Pasado mañana, 3 Junio, Miércoles

    Tiempo Temperatura Precipitaciones Viento Presión Humedad
    00:00 +18°C° 0 mm 1 mps 745 mmHg 70%
    01:00 +16°C° 0 mm 1 mps 745 mmHg 71%
    02:00 +16°C° 0 mm 1 mps 745 mmHg 72%
    03:00 +15°C° 0 mm 1 mps 744 mmHg 74%
    04:00 +15°C° 0 mm 1 mps 744 mmHg 75%
    05:00 +16°C° 0 mm 1 mps 743 mmHg 72%
    06:00 +18°C° 0 mm 1 mps 743 mmHg 69%
    07:00 +19°C° 0 mm 1 mps 743 mmHg 66%
    08:00 +20°C° 0 mm 1 mps 743 mmHg 61%
    09:00 +22°C° 0 mm 1 mps 742 mmHg 56%
    10:00 +24°C° 0 mm 1 mps 742 mmHg 51%
    11:00 +25°C° 0.1 mm 2 mps 741 mmHg 48%
    12:00 +26°C° 0.1 mm 2 mps 741 mmHg 46%
    13:00 +26°C° 0.1 mm 2 mps 740 mmHg 43%
    14:00 +27°C° 0.1 mm 2 mps 740 mmHg 42%
    15:00 +27°C° 0.1 mm 2 mps 739 mmHg 41%
    16:00 +27°C° 0.1 mm 2 mps 738 mmHg 40%
    17:00 +26°C° 0 mm 1 mps 738 mmHg 47%
    18:00 +25°C° 0 mm 1 mps 738 mmHg 54%
    19:00 +24°C° 0 mm 1 mps 737 mmHg 62%
    20:00 +22°C° 0.2 mm 1 mps 737 mmHg 65%
    21:00 +21°C° 0.2 mm 1 mps 737 mmHg 69%
    22:00 +20°C° 0.2 mm 1 mps 737 mmHg 72%
    23:00 +19°C° 1 mm 1 mps 736 mmHg 76%

    4 Junio, Jueves

    Tiempo Temperatura Precipitaciones Viento Presión Humedad
    00:00 +19°C° 1 mm 1 mps 736 mmHg 79%
    01:00 +18°C° 1 mm 1 mps 736 mmHg 82%
    02:00 +18°C° 1.2 mm 1 mps 735 mmHg 85%
    03:00 +17°C° 1.2 mm 2 mps 735 mmHg 88%
    04:00 +16°C° 1.2 mm 2 mps 734 mmHg 92%
    05:00 +16°C° 0.9 mm 2 mps 734 mmHg 90%
    06:00 +16°C° 0.9 mm 2 mps 734 mmHg 89%
    07:00 +16°C° 0.9 mm 3 mps 733 mmHg 88%
    08:00 +17°C° 0.2 mm 3 mps 733 mmHg 83%
    09:00 +17°C° 0.2 mm 3 mps 733 mmHg 77%
    10:00 +18°C° 0.2 mm 3 mps 733 mmHg 72%
    11:00 +19°C° 0 mm 3 mps 733 mmHg 65%
    12:00 +20°C° 0 mm 3 mps 733 mmHg 57%
    13:00 +21°C° 0 mm 3 mps 733 mmHg 50%
    14:00 +20°C° 0.2 mm 4 mps 733 mmHg 56%
    15:00 +19°C° 0.2 mm 4 mps 733 mmHg 63%
    16:00 +17°C° 0.2 mm 5 mps 733 mmHg 69%
    17:00 +17°C° 0.1 mm 4 mps 733 mmHg 71%
    18:00 +15°C° 0.1 mm 4 mps 733 mmHg 72%
    19:00 +13°C° 0.1 mm 4 mps 734 mmHg 74%
    20:00 +13°C° 0 mm 4 mps 734 mmHg 76%
    21:00 +12°C° 0 mm 3 mps 734 mmHg 78%
    22:00 +11°C° 0 mm 3 mps 735 mmHg 80%
    23:00 +11°C° 0 mm 3 mps 735 mmHg 81%

    5 Junio, Viernes

    Tiempo Temperatura Precipitaciones Viento Presión Humedad
    00:00 +10°C° 0 mm 3 mps 735 mmHg 83%
    01:00 +9°C° 0 mm 3 mps 735 mmHg 84%
    02:00 +9°C° 0 mm 2 mps 736 mmHg 85%
    03:00 +8°C° 0 mm 2 mps 736 mmHg 86%
    04:00 +7°C° 0 mm 2 mps 736 mmHg 86%
    05:00 +8°C° 0 mm 2 mps 737 mmHg 81%
    06:00 +9°C° 0 mm 3 mps 737 mmHg 75%
    07:00 +10°C° 0 mm 3 mps 737 mmHg 69%
    08:00 +11°C° 0 mm 3 mps 738 mmHg 62%
    09:00 +13°C° 0 mm 3 mps 738 mmHg 54%
    10:00 +14°C° 0 mm 4 mps 738 mmHg 47%
    11:00 +15°C° 0.1 mm 4 mps 738 mmHg 48%
    12:00 +15°C° 0.1 mm 4 mps 737 mmHg 48%
    13:00 +17°C° 0.1 mm 4 mps 737 mmHg 49%
    14:00 +17°C° 0.2 mm 4 mps 737 mmHg 48%
    15:00 +17°C° 0.2 mm 4 mps 737 mmHg 48%
    16:00 +18°C° 0.2 mm 4 mps 738 mmHg 48%
    17:00 +17°C° 0.1 mm 4 mps 738 mmHg 55%
    18:00 +15°C° 0.1 mm 4 mps 738 mmHg 61%
    19:00 +14°C° 0.1 mm 3 mps 738 mmHg 67%
    20:00 +13°C° 0 mm 3 mps 739 mmHg 71%
    21:00 +12°C° 0 mm 3 mps 739 mmHg 76%
    22:00 +11°C° 0 mm 3 mps 740 mmHg 80%
    23:00 +11°C° 0.1 mm 3 mps 739 mmHg 82%

    6 Junio, Sábado

    Tiempo Temperatura Precipitaciones Viento Presión Humedad
    00:00 +11°C° 0.1 mm 3 mps 739 mmHg 83%
    01:00 +11°C° 0.1 mm 3 mps 739 mmHg 84%
    02:00 +11°C° 0.1 mm 4 mps 739 mmHg 85%
    03:00 +11°C° 0.1 mm 4 mps 739 mmHg 86%
    04:00 +11°C° 0.1 mm 4 mps 739 mmHg 87%
    05:00 +12°C° 0 mm 4 mps 739 mmHg 86%
    06:00 +12°C° 0 mm 5 mps 739 mmHg 85%
    07:00 +13°C° 0 mm 5 mps 739 mmHg 83%
    08:00 +13°C° 0.1 mm 5 mps 739 mmHg 79%
    09:00 +14°C° 0.1 mm 6 mps 739 mmHg 74%
    10:00 +15°C° 0.1 mm 6 mps 739 mmHg 69%
    11:00 +16°C° 0.2 mm 6 mps 739 mmHg 68%
    12:00 +16°C° 0.2 mm 6 mps 739 mmHg 67%
    13:00 +16°C° 0.2 mm 7 mps 740 mmHg 66%
    14:00 +17°C° 0.2 mm 6 mps 740 mmHg 66%
    15:00 +17°C° 0.2 mm 6 mps 740 mmHg 66%
    16:00 +17°C° 0.2 mm 6 mps 740 mmHg 66%
    17:00 +16°C° 0.3 mm 5 mps 740 mmHg 70%
    18:00 +16°C° 0.3 mm 5 mps 740 mmHg 75%
    19:00 +15°C° 0.3 mm 4 mps 740 mmHg 80%
    20:00 +14°C° 0.9 mm 4 mps 740 mmHg 83%
    21:00 +13°C° 0.9 mm 3 mps 740 mmHg 86%
    22:00 +13°C° 0.9 mm 3 mps 740 mmHg 89%
    23:00 +12°C° 1 mm 3 mps 740 mmHg 89%
    Mostrar más